Content
SEND FEEDBACK

Daily
Averages
Monthly
Summary
United States of America

HULLDALE, TEXAS


Home > North America > United States > Texas
Elevation: 2490 feet     Latitude: 30 58N     Longitude: 100 42W

WEATHER
 
SELECT A DAY
Number of Records: 231,382;   Date Range: 10/5/04 - 8/12/14
 
SHARE

PRINT THIS DATA

[ ← Previous Day ]
WEATHER ALMANAC - JANUARY 3, 2013
[ Next Day → ]
[ °C ]   °F
Weather ElementAverageHighLow
Temperature35.2 °F41 °F (2:15 pm)26.6 °F (12:35 am)
Dewpoint23.3 °F30.2 °F (11:55 pm)19.4 °F (2:15 am)
Humidity63 %81 % (11:55 pm)45 % (2:35 pm)
Barometer30.41 in30.49 in (10:15 am)30.33 in (12:35 am)
Wind Speed4.6 mph10.4 mph (11:55 pm)
Weather ElementAverage
Visibility9.8 mi
Wind DirectionNNE (30.7 °)

Weather ElementTotal
Precipitation---
Heating Degree Days31.2 (Base 65)
Averaged from 71 records on January 3, 2013
WEATHER CONDITIONS BREAKOUT
WIND DIRECTION BREAKOUT
WEATHER BY HOUR - JANUARY 3, 2013
[ °C ]   °F
Local TimeTemperatureDewpointHumidityBarometerVisibilityWind DirectionWind SpeedGust SpeedPrecipitationEventsConditions
12:35 AM26.6 °F21.2 °F80 %30.33 in10.0 miCalmClear
12:55 AM28.4 °F21.2 °F74 %30.33 in10.0 miCalmClear
1:15 AM28.4 °F21.2 °F74 %30.33 in10.0 miCalmClear
1:35 AM26.6 °F21.2 °F80 %30.33 in10.0 miCalmScattered Clouds
1:55 AM26.6 °F21.2 °F80 %30.33 in10.0 miCalmScattered Clouds
2:15 AM26.6 °F19.4 °F74 %30.34 in10.0 miCalmClear
2:35 AM26.6 °F19.4 °F74 %30.34 in10.0 miCalmMostly Cloudy
2:55 AM26.6 °F19.4 °F74 %30.34 in10.0 miCalmScattered Clouds
3:15 AM26.6 °F21.2 °F80 %30.35 in10.0 miCalmMostly Cloudy
3:35 AM26.6 °F19.4 °F74 %30.35 in10.0 miCalmOvercast
3:55 AM26.6 °F21.2 °F80 %30.35 in10.0 miCalmMostly Cloudy
4:15 AM26.6 °F21.2 °F80 %30.36 in10.0 miCalmScattered Clouds
4:35 AM26.6 °F21.2 °F80 %30.36 in10.0 miNNE (20°)3.5 mphClear
4:55 AM26.6 °F21.2 °F80 %30.37 in10.0 miCalmPartly Cloudy
5:15 AM26.6 °F21.2 °F80 %30.37 in10.0 miNNE (20°)5.8 mphPartly Cloudy
5:35 AM26.6 °F21.2 °F80 %30.38 in10.0 miNorth (10°)4.6 mphClear
5:55 AM28.4 °F21.2 °F74 %30.37 in10.0 miNNE (20°)4.6 mphMostly Cloudy
6:15 AM28.4 °F23.0 °F80 %30.37 in10.0 miCalmOvercast
6:35 AM30.2 °F23.0 °F75 %30.37 in10.0 miCalmOvercast
6:55 AM32.0 °F23.0 °F69 %30.38 in10.0 miCalmOvercast
7:15 AM32.0 °F24.8 °F75 %30.39 in10.0 miCalmOvercast
7:35 AM32.0 °F24.8 °F75 %30.40 in10.0 miCalmOvercast
7:55 AM32.0 °F24.8 °F75 %30.39 in10.0 miCalmOvercast
8:15 AM32.0 °F24.8 °F75 %30.42 in10.0 miCalmOvercast
8:35 AM33.8 °F24.8 °F70 %30.42 in10.0 miNorth (10°)4.6 mphOvercast
8:55 AM33.8 °F26.6 °F75 %30.43 in10.0 miNorth (10°)3.5 mphOvercast
9:15 AM35.6 °F26.6 °F70 %30.44 in10.0 miNNE (20°)8.1 mphMostly Cloudy
9:35 AM35.6 °F26.6 °F70 %30.46 in10.0 miNNE (20°)3.5 mphPartly Cloudy
9:55 AM35.6 °F26.6 °F70 %30.47 in10.0 miNNE (30°)6.9 mphPartly Cloudy
10:15 AM37.4 °F26.6 °F65 %30.49 in10.0 miNE (40°)3.5 mphMostly Cloudy
10:35 AM37.4 °F24.8 °F60 %30.48 in10.0 miENE (60°)5.8 mphMostly Cloudy
10:55 AM37.4 °F24.8 °F60 %30.48 in10.0 miENE (70°)8.1 mphMostly Cloudy
11:15 AM37.4 °F23.0 °F56 %30.48 in10.0 miENE (60°)8.1 mphPartly Cloudy
11:35 AM37.4 °F23.0 °F56 %30.47 in10.0 miENE (60°)6.9 mphClear
11:55 AM37.4 °F23.0 °F56 %30.46 in10.0 miENE (60°)8.1 mphPartly Cloudy
12:15 PM39.2 °F24.8 °F56 %30.45 in10.0 miEast (80°)8.1 mphPartly Cloudy
12:35 PM39.2 °F23.0 °F52 %30.44 in10.0 miNE (50°)6.9 mphScattered Clouds
12:55 PM39.2 °F23.0 °F52 %30.44 in10.0 miENE (60°)8.1 mphMostly Cloudy
1:15 PM39.2 °F23.0 °F52 %30.42 in10.0 miNE (50°)6.9 mphMostly Cloudy
1:35 PM39.2 °F23.0 °F52 %30.41 in10.0 miNE (50°)8.1 mphMostly Cloudy
1:55 PM39.2 °F23.0 °F52 %30.41 in10.0 miENE (60°)5.8 mphMostly Cloudy
2:15 PM41.0 °F23.0 °F49 %30.41 in10.0 miENE (70°)4.6 mphOvercast
2:35 PM41.0 °F21.2 °F45 %30.41 in10.0 miENE (70°)3.5 mphOvercast
2:55 PM41.0 °F21.2 °F45 %30.41 in10.0 miNE (40°)6.9 mphOvercast
3:15 PM41.0 °F21.2 °F45 %30.41 in10.0 miNNE (30°)6.9 mphOvercast
3:35 PM41.0 °F23.0 °F49 %30.40 in10.0 miNE (40°)6.9 mphMostly Cloudy
3:55 PM41.0 °F23.0 °F49 %30.40 in10.0 miNNE (20°)8.1 mphOvercast
4:15 PM41.0 °F23.0 °F49 %30.41 in10.0 miENE (60°)5.8 mphOvercast
4:35 PM41.0 °F21.2 °F45 %30.41 in10.0 miENE (60°)5.8 mphOvercast
4:55 PM41.0 °F23.0 °F49 %30.40 in10.0 miNNE (30°)8.1 mphOvercast
5:15 PM41.0 °F23.0 °F49 %30.40 in10.0 miENE (60°)8.1 mphOvercast
5:35 PM41.0 °F23.0 °F49 %30.40 in10.0 miNE (50°)6.9 mphOvercast
5:55 PM41.0 °F23.0 °F49 %30.41 in10.0 miENE (60°)8.1 mphOvercast
6:15 PM41.0 °F23.0 °F49 %30.40 in10.0 miNE (40°)8.1 mphOvercast
6:35 PM39.2 °F23.0 °F52 %30.40 in10.0 miNE (50°)8.1 mphOvercast
6:55 PM39.2 °F23.0 °F52 %30.42 in10.0 miENE (60°)4.6 mphOvercast
7:15 PM39.2 °F23.0 °F52 %30.42 in10.0 miNE (50°)5.8 mphOvercast
7:35 PM39.2 °F23.0 °F52 %30.43 in10.0 miNE (50°)5.8 mphOvercast
7:55 PM39.2 °F23.0 °F52 %30.43 in10.0 miNE (50°)5.8 mphOvercast
8:15 PM39.2 °F23.0 °F52 %30.42 in10.0 miNE (50°)5.8 mphOvercast
8:35 PM39.2 °F23.0 °F52 %30.41 in10.0 miNE (40°)5.8 mphOvercast
8:55 PM39.2 °F24.8 °F56 %30.42 in10.0 miNE (40°)5.8 mphOvercast
9:15 PM39.2 °F24.8 °F56 %30.44 in10.0 miNE (50°)6.9 mphOvercast
9:35 PM39.2 °F24.8 °F56 %30.46 in10.0 miNNE (20°)4.6 mphOvercast
9:55 PM39.2 °F24.8 °F56 %30.42 in10.0 miNNE (30°)9.2 mphOvercast
10:15 PM39.2 °F24.8 °F56 %30.43 in10.0 miNNE (30°)6.9 mphOvercast
10:35 PM39.2 °F26.6 °F61 %30.44 in10.0 miNNE (30°)5.8 mph
10:55 PM37.4 °F26.6 °F65 %30.43 in10.0 miNE (40°)4.6 mphScattered Clouds
11:15 PM37.4 °F26.6 °F65 %30.47 in7.0 miENE (60°)8.1 mphSnowLight Snow
11:35 PM37.4 °F28.4 °F70 %30.48 in5.0 miNNE (20°)6.9 mphSnowLight Snow
11:55 PM35.6 °F30.2 °F81 %30.44 in6.0 miNNE (20°)10.4 mphOvercast
Hourly data recorded from KSOA, located miles away from Hulldale, Texas







STORIES FROM OUR PARTNERS